QPF
0.01 0.02 0.01 0.01 0.01 0.01 0.01 0.01 0.01 0.01 0.01 0.01 0.02 0.03 0.04 0.02 0.01 0.01 0.01 0.01 0.01 0.02 0.02 0.03 0.04 0.03 0.02 0.03 0.02 0.02 0.02 0.02 0.02 0.03 0.05 0.06 0.05 0.07 0.08 0.08 0.06 0.04 0.06
0.03 0.02 0.01 0.01 0.01 0.01 0.01 0.01 0.02 0.03 0.03 0.03 0.03 0.03 0.03 0.02 0.01 0.01 0.02 0.02 0.01 0.01 0.01 0.02 0.02 0.03 0.03 0.03 0.02 0.01 0.02 0.02 0.03 0.03 0.03 0.03 0.04 0.07 0.08 0.08 0.07 0.06 0.05
0.03 0.03 0.03 0.02 0.02 0.02 0.01 0.02 0.02 0.03 0.04 0.06 0.05 0.04 0.03 0.02 0.02 0.03 0.03 0.02 0.01 0.01 0.02 0.02 0.03 0.02 0.02 0.02 0.02 0.03 0.03 0.04 0.03 0.03 0.03 0.02 0.02 0.04 0.05 0.06 0.07 0.07 0.05
0.03 0.03 0.03 0.02 0.02 0.02 0.02 0.02 0.02 0.02 0.03 0.06 0.08 0.06 0.03 0.02 0.03 0.02 0.01 0.02 0.01 0.02 0.01 0.01 0.02 0.01 0.01 0.01 0.02 0.03 0.03 0.02 0.02 0.02 0.03 0.03 0.02 0.02 0.02 0.03 0.03 0.05 0.05
0.02 0.02 0.02 0.02 0.01 0.01 0.01 0.02 0.01 0.02 0.02 0.04 0.04 0.03 0.03 0.03 0.02 0.01 0.01 0.01 0.01 0.02 0.02 0.01 0.01 0.01 0.01 0.01 0.02 0.02 0.03 0.03 0.03 0.03 0.03 0.04 0.03 0.03 0.02 0.02 0.01 0.02 0.03
0.01 0.01 0.02 0.02 0.02 0.02 0.02 0.03 0.03 0.03 0.04 0.04 0.04 0.04 0.03 0.02 0.02 0.01 0.01 0.01 0.01 0.01 0.02 0.01 0.01 0.01 0.01 0.01 0.01 0.02 0.02 0.03 0.03 0.03 0.04 0.05 0.05 0.04 0.02 0.02 0.01 0.01 0.02
0.00 0.01 0.02 0.03 0.03 0.03 0.03 0.04 0.05 0.06 0.06 0.06 0.05 0.04 0.03 0.02 0.01 0.01 0.02 0.02 0.02 0.02 0.02 0.02 0.01 0.01 0.02 0.02 0.02 0.03 0.02 0.03 0.03 0.03 0.03 0.04 0.04 0.05 0.04 0.03 0.03 0.02 0.02
0.00 0.00 0.01 0.02 0.03 0.03 0.03 0.04 0.06 0.07 0.07 0.06 0.06 0.06 0.04 0.04 0.03 0.03 0.04 0.04 0.04 0.04 0.04 0.04 0.02 0.02 0.03 0.03 0.03 0.03 0.02 0.03 0.03 0.02 0.02 0.03 0.03 0.05 0.05 0.03 0.03 0.03 0.02
0.00 0.00 0.01 0.01 0.02 0.03 0.03 0.03 0.04 0.06 0.05 0.06 0.07 0.07 0.06 0.05 0.05 0.05 0.06 0.06 0.06 0.06 0.07 0.06 0.05 0.04 0.03 0.03 0.03 0.02 0.02 0.03 0.03 0.02 0.02 0.02 0.02 0.04 0.04 0.03 0.03 0.04 0.04
0.01 0.01 0.02 0.04 0.03 0.04 0.04 0.04 0.04 0.04 0.02 0.02 0.03 0.06 0.07 0.06 0.07 0.07 0.06 0.06 0.06 0.07 0.08 0.08 0.08 0.06 0.05 0.04 0.03 0.03 0.03 0.03 0.03 0.03 0.02 0.02 0.02 0.03 0.04 0.03 0.03 0.04 0.04
0.01 0.01 0.02 0.04 0.05 0.05 0.05 0.05 0.05 0.03 0.02 0.02 0.02 0.03 0.03 0.04 0.05 0.07 0.07 0.06 0.06 0.06 0.07 0.07 0.07 0.08 0.07 0.07 0.07 0.06 0.05 0.05 0.04 0.05 0.04 0.03 0.05 0.05 0.04 0.04 0.04 0.04 0.04
0.01 0.01 0.01 0.02 0.03 0.03 0.03 0.04 0.05 0.04 0.03 0.03 0.03 0.04 0.04 0.04 0.04 0.05 0.05 0.05 0.04 0.04 0.05 0.06 0.08 0.10 0.11 0.12 0.11 0.09 0.09 0.07 0.06 0.06 0.06 0.05 0.06 0.05 0.05 0.03 0.03 0.02 0.03
0.01 0.02 0.02 0.02 0.02 0.01 0.01 0.02 0.03 0.04 0.04 0.04 0.04 0.03 0.03 0.03 0.03 0.03 0.04 0.04 0.03 0.04 0.06 0.09 0.09 0.10 0.11 0.12 0.13 0.11 0.09 0.07 0.06 0.05 0.05 0.05 0.06 0.05 0.05 0.04 0.02 0.03 0.03
0.01 0.03 0.03 0.03 0.02 0.01 0.01 0.03 0.03 0.03 0.02 0.02 0.04 0.03 0.02 0.02 0.02 0.02 0.03 0.03 0.03 0.04 0.05 0.07 0.07 0.08 0.08 0.07 0.08 0.09 0.07 0.05 0.04 0.04 0.03 0.03 0.05 0.04 0.04 0.04 0.03 0.04 0.03
0.01 0.01 0.01 0.01 0.01 0.02 0.02 0.04 0.04 0.03 0.02 0.02 0.04 0.03 0.04 0.03 0.03 0.03 0.03 0.02 0.03 0.03 0.04 0.04 0.03 0.04 0.05 0.04 0.04 0.05 0.05 0.04 0.03 0.03 0.02 0.03 0.04 0.04 0.04 0.03 0.03 0.03 0.03
0.00 0.00 0.00 0.00 0.01 0.02 0.03 0.05 0.04 0.03 0.02 0.03 0.04 0.05 0.06 0.06 0.05 0.04 0.03 0.03 0.04 0.04 0.02 0.03 0.03 0.04 0.04 0.04 0.06 0.06 0.06 0.05 0.04 0.03 0.02 0.02 0.04 0.04 0.04 0.03 0.03 0.02 0.02
0.00 0.00 0.00 0.00 0.00 0.01 0.03 0.05 0.03 0.02 0.03 0.04 0.05 0.06 0.07 0.08 0.06 0.05 0.04 0.05 0.05 0.03 0.02 0.03 0.04 0.05 0.04 0.03 0.03 0.05 0.05 0.04 0.03 0.02 0.02 0.02 0.02 0.04 0.04 0.03 0.02 0.01 0.01
0.00 0.00 0.00 0.00 0.01 0.02 0.03 0.03 0.03 0.03 0.03 0.03 0.04 0.05 0.05 0.05 0.05 0.04 0.03 0.03 0.04 0.03 0.03 0.03 0.04 0.05 0.03 0.03 0.02 0.03 0.04 0.04 0.04 0.03 0.03 0.03 0.03 0.03 0.04 0.03 0.02 0.02 0.02
0.00 0.00 0.01 0.01 0.02 0.02 0.03 0.02 0.03 0.03 0.03 0.02 0.03 0.03 0.03 0.03 0.03 0.04 0.04 0.03 0.04 0.05 0.06 0.08 0.07 0.05 0.03 0.03 0.02 0.02 0.02 0.02 0.03 0.04 0.04 0.05 0.04 0.04 0.04 0.03 0.03 0.02 0.03
0.00 0.00 0.01 0.01 0.02 0.02 0.02 0.02 0.01 0.01 0.02 0.02 0.02 0.02 0.03 0.03 0.03 0.03 0.04 0.05 0.06 0.08 0.09 0.09 0.08 0.07 0.04 0.03 0.03 0.03 0.02 0.01 0.02 0.04 0.06 0.06 0.04 0.04 0.04 0.02 0.01 0.01 0.02
0.00 0.01 0.01 0.02 0.03 0.03 0.03 0.02 0.01 0.01 0.01 0.01 0.01 0.01 0.02 0.04 0.04 0.03 0.03 0.04 0.05 0.08 0.08 0.06 0.05 0.04 0.03 0.03 0.03 0.03 0.03 0.03 0.03 0.02 0.03 0.05 0.05 0.03 0.03 0.03 0.02 0.01 0.02
0.00 0.00 0.00 0.01 0.03 0.03 0.02 0.01 0.01 0.01 0.01 0.01 0.01 0.02 0.02 0.03 0.03 0.03 0.03 0.03 0.03 0.03 0.03 0.03 0.04 0.04 0.03 0.03 0.04 0.05 0.05 0.04 0.03 0.02 0.02 0.04 0.06 0.05 0.04 0.03 0.02 0.03 0.03
0.01 0.01 0.01 0.01 0.01 0.01 0.01 0.01 0.02 0.02 0.02 0.02 0.02 0.03 0.03 0.02 0.02 0.02 0.02 0.03 0.03 0.03 0.03 0.04 0.05 0.05 0.04 0.04 0.05 0.06 0.05 0.05 0.03 0.02 0.02 0.02 0.03 0.04 0.05 0.05 0.04 0.04 0.03
0.01 0.01 0.01 0.00 0.01 0.01 0.01 0.01 0.01 0.03 0.04 0.04 0.05 0.04 0.03 0.03 0.02 0.02 0.03 0.04 0.06 0.07 0.08 0.07 0.06 0.05 0.05 0.04 0.04 0.04 0.04 0.04 0.03 0.02 0.02 0.03 0.03 0.04 0.05 0.06 0.05 0.04 0.03
0.01 0.01 0.01 0.01 0.01 0.01 0.01 0.02 0.02 0.03 0.04 0.07 0.08 0.07 0.05 0.04 0.04 0.04 0.04 0.05 0.07 0.09 0.10 0.10 0.10 0.09 0.09 0.08 0.08 0.07 0.06 0.05 0.04 0.03 0.03 0.03 0.03 0.03 0.05 0.04 0.04 0.04 0.04
0.01 0.01 0.01 0.01 0.01 0.01 0.02 0.05 0.08 0.08 0.06 0.05 0.06 0.06 0.05 0.04 0.04 0.04 0.04 0.03 0.03 0.04 0.05 0.05 0.05 0.06 0.06 0.07 0.08 0.07 0.07 0.06 0.05 0.04 0.05 0.04 0.03 0.03 0.04 0.04 0.03 0.03 0.03
MSLP
1015.91 1015.75 1015.58 1015.40 1015.24 1015.12 1015.07 1015.10 1015.24 1015.45 1015.73 1016.02 1016.29 1016.52 1016.67 1016.76 1016.77 1016.75 1016.72 1016.70 1016.71 1016.75 1016.81 1016.89 1016.95 1016.99 1017.00 1016.95 1016.87 1016.77 1016.64 1016.52 1016.39 1016.27 1016.15 1016.01 1015.86 1015.69 1015.49 1015.28 1015.05 1014.84 1014.65
1016.18 1016.06 1015.90 1015.70 1015.48 1015.29 1015.17 1015.14 1015.23 1015.43 1015.70 1016.02 1016.32 1016.56 1016.72 1016.78 1016.76 1016.69 1016.61 1016.54 1016.52 1016.56 1016.64 1016.74 1016.83 1016.89 1016.91 1016.87 1016.78 1016.66 1016.53 1016.42 1016.34 1016.29 1016.25 1016.22 1016.16 1016.06 1015.92 1015.72 1015.49 1015.23 1014.98
1016.28 1016.23 1016.12 1015.94 1015.71 1015.47 1015.29 1015.20 1015.24 1015.40 1015.66 1015.98 1016.30 1016.55 1016.72 1016.77 1016.73 1016.64 1016.52 1016.44 1016.41 1016.45 1016.55 1016.68 1016.80 1016.89 1016.91 1016.87 1016.78 1016.66 1016.54 1016.45 1016.41 1016.41 1016.45 1016.50 1016.53 1016.50 1016.41 1016.23 1015.99 1015.71 1015.41
1016.15 1016.21 1016.19 1016.07 1015.86 1015.62 1015.40 1015.27 1015.26 1015.38 1015.62 1015.93 1016.25 1016.52 1016.69 1016.76 1016.72 1016.62 1016.51 1016.42 1016.40 1016.45 1016.57 1016.73 1016.88 1016.98 1017.02 1016.99 1016.90 1016.78 1016.66 1016.59 1016.57 1016.62 1016.72 1016.83 1016.91 1016.94 1016.88 1016.72 1016.48 1016.18 1015.85
1015.80 1015.99 1016.09 1016.07 1015.93 1015.72 1015.50 1015.34 1015.29 1015.38 1015.59 1015.88 1016.19 1016.46 1016.66 1016.74 1016.73 1016.65 1016.56 1016.49 1016.49 1016.56 1016.69 1016.87 1017.03 1017.15 1017.20 1017.18 1017.09 1016.97 1016.86 1016.80 1016.80 1016.87 1016.99 1017.13 1017.24 1017.29 1017.25 1017.10 1016.87 1016.56 1016.22
1015.27 1015.61 1015.86 1015.96 1015.92 1015.76 1015.56 1015.40 1015.32 1015.37 1015.55 1015.82 1016.12 1016.40 1016.62 1016.74 1016.76 1016.72 1016.66 1016.62 1016.63 1016.71 1016.86 1017.04 1017.21 1017.33 1017.39 1017.37 1017.29 1017.18 1017.08 1017.02 1017.02 1017.09 1017.21 1017.35 1017.46 1017.51 1017.47 1017.33 1017.10 1016.80 1016.47
1014.67 1015.15 1015.53 1015.77 1015.83 1015.75 1015.59 1015.43 1015.34 1015.37 1015.51 1015.76 1016.05 1016.34 1016.58 1016.73 1016.79 1016.79 1016.77 1016.75 1016.78 1016.87 1017.00 1017.17 1017.33 1017.46 1017.51 1017.50 1017.44 1017.34 1017.25 1017.19 1017.19 1017.26 1017.36 1017.47 1017.57 1017.60 1017.55 1017.41 1017.19 1016.91 1016.60
1014.08 1014.68 1015.19 1015.54 1015.70 1015.70 1015.59 1015.45 1015.36 1015.36 1015.48 1015.70 1015.98 1016.27 1016.53 1016.71 1016.81 1016.85 1016.85 1016.85 1016.89 1016.96 1017.09 1017.23 1017.37 1017.48 1017.54 1017.54 1017.48 1017.41 1017.33 1017.29 1017.29 1017.34 1017.42 1017.51 1017.57 1017.58 1017.52 1017.38 1017.17 1016.92 1016.65
1013.61 1014.28 1014.88 1015.32 1015.56 1015.62 1015.55 1015.44 1015.35 1015.34 1015.44 1015.65 1015.92 1016.21 1016.47 1016.67 1016.80 1016.87 1016.89 1016.90 1016.93 1016.99 1017.08 1017.20 1017.31 1017.41 1017.46 1017.46 1017.44 1017.39 1017.34 1017.31 1017.32 1017.36 1017.43 1017.49 1017.52 1017.51 1017.44 1017.31 1017.12 1016.91 1016.68
1013.26 1013.97 1014.61 1015.09 1015.38 1015.49 1015.46 1015.38 1015.31 1015.30 1015.40 1015.59 1015.85 1016.13 1016.40 1016.62 1016.77 1016.85 1016.88 1016.90 1016.91 1016.95 1017.01 1017.09 1017.18 1017.26 1017.30 1017.32 1017.32 1017.30 1017.28 1017.29 1017.31 1017.36 1017.41 1017.46 1017.48 1017.46 1017.39 1017.27 1017.11 1016.93 1016.75
1013.02 1013.71 1014.35 1014.84 1015.15 1015.28 1015.30 1015.25 1015.21 1015.22 1015.33 1015.52 1015.77 1016.05 1016.32 1016.54 1016.69 1016.79 1016.83 1016.84 1016.85 1016.87 1016.91 1016.97 1017.03 1017.09 1017.14 1017.17 1017.19 1017.20 1017.22 1017.25 1017.30 1017.35 1017.41 1017.46 1017.47 1017.45 1017.39 1017.29 1017.16 1017.02 1016.88
1012.79 1013.44 1014.03 1014.49 1014.80 1014.96 1015.01 1015.01 1015.02 1015.07 1015.20 1015.41 1015.66 1015.94 1016.20 1016.42 1016.58 1016.69 1016.74 1016.76 1016.78 1016.79 1016.82 1016.87 1016.92 1016.97 1017.02 1017.06 1017.10 1017.13 1017.17 1017.23 1017.29 1017.36 1017.43 1017.48 1017.50 1017.49 1017.44 1017.36 1017.27 1017.16 1017.05
1012.47 1013.05 1013.58 1014.00 1014.30 1014.48 1014.58 1014.65 1014.72 1014.83 1015.01 1015.24 1015.50 1015.78 1016.04 1016.26 1016.42 1016.54 1016.61 1016.65 1016.69 1016.72 1016.76 1016.81 1016.87 1016.92 1016.97 1017.01 1017.05 1017.09 1017.15 1017.21 1017.28 1017.35 1017.42 1017.47 1017.50 1017.50 1017.47 1017.42 1017.35 1017.27 1017.19
1012.00 1012.49 1012.94 1013.32 1013.62 1013.83 1013.99 1014.14 1014.30 1014.49 1014.72 1014.99 1015.27 1015.55 1015.81 1016.03 1016.20 1016.33 1016.43 1016.51 1016.58 1016.65 1016.73 1016.80 1016.86 1016.92 1016.97 1017.00 1017.03 1017.06 1017.10 1017.15 1017.21 1017.27 1017.33 1017.38 1017.41 1017.42 1017.40 1017.37 1017.32 1017.26 1017.20
1011.34 1011.75 1012.13 1012.47 1012.77 1013.03 1013.27 1013.51 1013.76 1014.04 1014.34 1014.65 1014.95 1015.24 1015.50 1015.72 1015.90 1016.05 1016.19 1016.31 1016.44 1016.56 1016.68 1016.78 1016.87 1016.93 1016.96 1016.98 1016.98 1016.97 1016.98 1016.99 1017.02 1017.06 1017.10 1017.14 1017.16 1017.17 1017.16 1017.13 1017.10 1017.05 1017.01
1010.52 1010.85 1011.18 1011.50 1011.81 1012.12 1012.45 1012.78 1013.14 1013.51 1013.87 1014.23 1014.56 1014.85 1015.10 1015.32 1015.52 1015.70 1015.87 1016.04 1016.22 1016.40 1016.56 1016.70 1016.81 1016.87 1016.89 1016.87 1016.83 1016.77 1016.72 1016.69 1016.67 1016.68 1016.69 1016.71 1016.72 1016.72 1016.71 1016.69 1016.65 1016.62 1016.58
1009.61 1009.88 1010.17 1010.47 1010.81 1011.18 1011.59 1012.02 1012.47 1012.92 1013.35 1013.74 1014.09 1014.39 1014.64 1014.86 1015.07 1015.27 1015.48 1015.70 1015.93 1016.15 1016.36 1016.52 1016.64 1016.69 1016.68 1016.62 1016.52 1016.41 1016.30 1016.22 1016.15 1016.12 1016.10 1016.10 1016.10 1016.10 1016.08 1016.05 1016.02 1015.98 1015.94
1008.72 1008.94 1009.19 1009.50 1009.86 1010.29 1010.76 1011.27 1011.80 1012.32 1012.79 1013.22 1013.58 1013.89 1014.14 1014.36 1014.57 1014.79 1015.03 1015.29 1015.56 1015.81 1016.04 1016.21 1016.32 1016.35 1016.30 1016.20 1016.05 1015.89 1015.73 1015.59 1015.49 1015.43 1015.40 1015.38 1015.38 1015.37 1015.35 1015.32 1015.27 1015.23 1015.18
1007.92 1008.10 1008.33 1008.63 1009.01 1009.47 1010.00 1010.56 1011.15 1011.71 1012.22 1012.67 1013.05 1013.36 1013.63 1013.86 1014.08 1014.32 1014.58 1014.85 1015.13 1015.40 1015.63 1015.79 1015.87 1015.87 1015.78 1015.63 1015.44 1015.24 1015.05 1014.89 1014.78 1014.70 1014.67 1014.66 1014.66 1014.66 1014.64 1014.60 1014.55 1014.49 1014.43
1007.26 1007.41 1007.61 1007.90 1008.28 1008.76 1009.30 1009.90 1010.51 1011.10 1011.64 1012.11 1012.51 1012.85 1013.13 1013.38 1013.63 1013.88 1014.15 1014.43 1014.71 1014.96 1015.16 1015.29 1015.33 1015.29 1015.16 1014.98 1014.77 1014.55 1014.35 1014.19 1014.09 1014.04 1014.02 1014.03 1014.05 1014.06 1014.05 1014.01 1013.95 1013.87 1013.79
1006.74 1006.86 1007.03 1007.30 1007.66 1008.12 1008.66 1009.26 1009.88 1010.48 1011.04 1011.54 1011.97 1012.34 1012.66 1012.95 1013.23 1013.50 1013.78 1014.05 1014.31 1014.52 1014.68 1014.76 1014.76 1014.67 1014.51 1014.31 1014.09 1013.88 1013.70 1013.58 1013.51 1013.49 1013.52 1013.57 1013.61 1013.64 1013.64 1013.60 1013.53 1013.44 1013.33
1006.34 1006.41 1006.56 1006.78 1007.11 1007.54 1008.05 1008.62 1009.23 1009.84 1010.41 1010.95 1011.43 1011.85 1012.23 1012.57 1012.89 1013.19 1013.47 1013.74 1013.96 1014.13 1014.23 1014.25 1014.20 1014.07 1013.89 1013.68 1013.47 1013.29 1013.15 1013.08 1013.06 1013.10 1013.18 1013.26 1013.34 1013.39 1013.40 1013.36 1013.28 1013.17 1013.05
1006.01 1006.05 1006.15 1006.33 1006.61 1006.98 1007.45 1007.98 1008.57 1009.17 1009.76 1010.33 1010.86 1011.36 1011.81 1012.22 1012.59 1012.93 1013.23 1013.47 1013.66 1013.78 1013.82 1013.78 1013.68 1013.51 1013.32 1013.12 1012.94 1012.80 1012.72 1012.71 1012.75 1012.84 1012.95 1013.07 1013.17 1013.23 1013.24 1013.21 1013.12 1013.01 1012.87
1005.75 1005.76 1005.82 1005.95 1006.16 1006.47 1006.88 1007.36 1007.91 1008.50 1009.10 1009.71 1010.30 1010.87 1011.40 1011.89 1012.32 1012.69 1013.00 1013.24 1013.39 1013.46 1013.45 1013.36 1013.21 1013.02 1012.83 1012.64 1012.50 1012.41 1012.39 1012.42 1012.51 1012.63 1012.77 1012.90 1013.00 1013.06 1013.07 1013.02 1012.94 1012.82 1012.68
1005.58 1005.57 1005.58 1005.66 1005.82 1006.06 1006.39 1006.81 1007.32 1007.88 1008.49 1009.13 1009.78 1010.41 1011.01 1011.56 1012.05 1012.46 1012.78 1013.00 1013.13 1013.15 1013.09 1012.96 1012.78 1012.59 1012.40 1012.24 1012.13 1012.09 1012.11 1012.18 1012.29 1012.42 1012.55 1012.66 1012.74 1012.77 1012.76 1012.70 1012.61 1012.51 1012.39
1005.57 1005.54 1005.52 1005.55 1005.65 1005.82 1006.08 1006.43 1006.88 1007.41 1008.00 1008.65 1009.33 1010.00 1010.66 1011.26 1011.79 1012.22 1012.55 1012.76 1012.85 1012.85 1012.75 1012.59 1012.40 1012.21 1012.03 1011.90 1011.83 1011.81 1011.85 1011.94 1012.04 1012.15 1012.24 1012.30 1012.33 1012.31 1012.26 1012.19 1012.10 1012.01 1011.93
Thickness
5786 5785 5783 5782 5780 5777 5774 5771 5768 5766 5764 5760 5757 5754 5752 5753 5752 5753 5753 5752 5751 5751 5750 5749 5747 5746 5745 5743 5742 5740 5739 5737 5737 5736 5734 5736 5739 5740 5741 5742 5742 5743 5743
5782 5782 5782 5780 5778 5776 5773 5771 5768 5766 5764 5761 5758 5756 5753 5752 5752 5752 5752 5751 5750 5750 5749 5747 5746 5745 5743 5741 5739 5737 5735 5734 5734 5731 5728 5726 5729 5734 5737 5738 5738 5739 5739
5781 5780 5779 5778 5777 5775 5773 5772 5769 5766 5764 5762 5758 5754 5751 5750 5749 5749 5749 5749 5749 5748 5747 5746 5745 5743 5741 5738 5737 5735 5733 5731 5730 5730 5727 5722 5720 5723 5729 5731 5733 5733 5734
5783 5780 5779 5777 5776 5776 5774 5772 5769 5765 5763 5760 5756 5752 5748 5745 5746 5746 5747 5747 5747 5746 5745 5744 5742 5741 5739 5736 5735 5734 5732 5730 5727 5727 5727 5725 5724 5720 5719 5723 5726 5728 5728
5784 5781 5781 5780 5778 5777 5774 5771 5767 5763 5761 5758 5755 5751 5747 5746 5745 5745 5744 5744 5744 5744 5743 5741 5740 5738 5736 5734 5732 5731 5729 5728 5725 5723 5722 5721 5720 5719 5716 5715 5718 5721 5723
5785 5783 5782 5779 5777 5775 5772 5768 5764 5760 5758 5755 5752 5749 5746 5744 5742 5741 5740 5740 5740 5740 5739 5738 5737 5735 5733 5731 5729 5728 5726 5725 5723 5721 5720 5718 5717 5715 5714 5713 5712 5713 5716
5784 5782 5779 5776 5774 5772 5769 5766 5761 5758 5755 5752 5750 5748 5745 5743 5740 5739 5737 5737 5736 5735 5735 5735 5733 5732 5730 5728 5726 5724 5723 5721 5720 5718 5717 5716 5715 5715 5713 5711 5709 5708 5710
5784 5782 5779 5776 5773 5770 5767 5763 5759 5755 5753 5750 5747 5746 5744 5741 5739 5738 5737 5735 5734 5733 5732 5731 5729 5728 5727 5725 5723 5721 5719 5718 5717 5716 5714 5713 5712 5711 5710 5709 5707 5704 5704
5782 5780 5777 5774 5771 5768 5765 5761 5757 5753 5750 5747 5745 5743 5741 5739 5737 5736 5734 5732 5731 5730 5729 5727 5725 5724 5722 5721 5720 5718 5716 5714 5713 5712 5711 5709 5708 5708 5707 5706 5705 5702 5699
5778 5777 5775 5772 5769 5766 5762 5758 5754 5750 5748 5745 5742 5741 5738 5736 5734 5732 5729 5728 5727 5725 5724 5722 5721 5719 5718 5716 5715 5713 5712 5709 5708 5707 5706 5705 5704 5704 5703 5702 5701 5700 5698
5775 5774 5772 5769 5766 5762 5758 5753 5750 5746 5743 5741 5739 5737 5735 5733 5730 5728 5726 5724 5723 5721 5720 5719 5717 5714 5713 5711 5710 5708 5707 5705 5703 5703 5702 5701 5700 5698 5697 5696 5696 5694 5693
5772 5770 5768 5764 5761 5757 5754 5750 5747 5744 5741 5739 5736 5733 5731 5729 5727 5725 5723 5721 5719 5718 5717 5715 5713 5710 5709 5707 5706 5704 5702 5700 5699 5698 5697 5696 5695 5693 5692 5690 5689 5688 5687
5766 5764 5761 5758 5756 5753 5750 5747 5744 5741 5738 5735 5732 5730 5727 5725 5723 5721 5719 5717 5715 5713 5712 5710 5708 5706 5704 5703 5702 5700 5698 5696 5695 5694 5693 5692 5690 5688 5687 5685 5684 5683 5683
5760 5758 5755 5753 5752 5750 5747 5744 5741 5738 5735 5731 5728 5725 5723 5721 5719 5717 5715 5713 5711 5709 5707 5704 5703 5701 5699 5698 5697 5695 5693 5692 5691 5690 5689 5688 5686 5684 5683 5682 5680 5678 5676
5755 5753 5750 5748 5747 5744 5742 5740 5737 5734 5731 5727 5724 5722 5720 5717 5715 5713 5711 5709 5707 5705 5702 5699 5698 5696 5694 5693 5692 5690 5689 5688 5687 5686 5685 5685 5684 5683 5680 5679 5677 5674 5672
5752 5750 5747 5744 5741 5739 5737 5734 5732 5729 5726 5722 5720 5718 5715 5713 5710 5708 5706 5704 5702 5700 5697 5695 5693 5691 5690 5689 5687 5686 5684 5683 5682 5681 5681 5681 5680 5679 5677 5676 5675 5672 5669
5749 5747 5744 5741 5739 5736 5733 5729 5727 5724 5721 5718 5715 5712 5710 5708 5705 5704 5701 5698 5696 5694 5692 5690 5688 5686 5686 5685 5683 5682 5680 5679 5678 5677 5677 5677 5677 5675 5673 5672 5670 5668 5667
5745 5744 5741 5738 5736 5733 5729 5726 5722 5719 5715 5712 5710 5708 5705 5703 5700 5698 5696 5694 5691 5688 5686 5685 5684 5683 5682 5680 5679 5678 5676 5674 5673 5673 5673 5672 5671 5671 5669 5667 5665 5664 5663
5743 5741 5739 5735 5732 5728 5725 5720 5717 5714 5711 5708 5705 5703 5700 5697 5695 5693 5691 5689 5685 5683 5681 5680 5679 5677 5676 5676 5675 5673 5670 5669 5669 5669 5669 5668 5667 5666 5664 5662 5660 5659 5658
5738 5735 5733 5729 5725 5722 5719 5714 5711 5708 5705 5704 5702 5699 5696 5693 5690 5689 5686 5684 5681 5678 5677 5675 5674 5673 5672 5671 5670 5668 5666 5664 5664 5664 5664 5663 5662 5661 5658 5656 5655 5653 5653
5732 5730 5726 5723 5720 5717 5713 5708 5705 5703 5702 5699 5697 5694 5691 5688 5686 5683 5681 5679 5677 5675 5672 5670 5670 5669 5668 5667 5666 5664 5662 5661 5659 5658 5658 5658 5657 5655 5653 5651 5650 5649 5648
5724 5723 5719 5716 5714 5711 5706 5702 5699 5699 5696 5693 5690 5687 5685 5683 5681 5678 5675 5673 5670 5668 5666 5665 5664 5664 5663 5662 5661 5659 5657 5656 5654 5653 5653 5652 5651 5649 5648 5646 5645 5643 5641
5716 5715 5712 5708 5706 5704 5701 5697 5695 5693 5689 5686 5683 5681 5679 5676 5674 5671 5668 5666 5663 5661 5660 5659 5658 5659 5658 5656 5655 5653 5652 5650 5648 5647 5647 5646 5645 5645 5644 5642 5640 5638 5636
5707 5706 5704 5700 5698 5697 5695 5694 5691 5686 5683 5680 5677 5675 5672 5669 5667 5664 5662 5659 5657 5655 5654 5653 5653 5652 5651 5650 5649 5647 5645 5644 5642 5641 5640 5639 5639 5639 5638 5637 5635 5633 5632
5700 5698 5696 5694 5692 5691 5689 5687 5684 5680 5677 5674 5671 5668 5665 5663 5659 5658 5655 5654 5653 5651 5649 5649 5648 5646 5646 5646 5644 5641 5640 5638 5636 5634 5633 5632 5632 5632 5631 5630 5630 5628 5627
5691 5690 5688 5687 5685 5683 5681 5680 5677 5674 5670 5667 5664 5662 5659 5657 5654 5652 5651 5650 5648 5646 5645 5644 5643 5642 5641 5640 5637 5635 5634 5632 5630 5628 5627 5626 5625 5625 5625 5624 5624 5624 5622